Location: Ehrke Reservoir
(40.0279°N, 99.6641°W)
Time: 21:28:31
(UTC+00:00)

Shenzhou-11 Module - Pass Details

Date: 20 January 2020
Orbit: 298 x 313 km, 42.8° (Epoch: 17 February)

Event Time Altitude Azimuth Distance (km) Brightness Sun altitude
Rises 01:24:22 0° 229° (SW) 2,016 6.7 -19.4°
Reaches altitude 10° 01:26:26 10° 219° (SW) 1,187 5.2 -19.8°
Enters shadow 01:27:49 23° 197° (SSW) 715 3.7 -20.0°
